Location: Unspecified
(0.0000°N, 0.0000°E)
Time: 05:59:28
(UTC+00:00)

Vanguard 2 - Pass Details

Date: 27 May 2026
Orbit: 553 x 2894 km, 32.9° (Epoch: 9 June)

Event Time Altitude Azimuth Distance (km) Brightness Sun altitude
Rises 02:23:41 0° 320° (NW) 6,380 12.2 -48.4°
Reaches altitude 10° 02:29:32 10° 334° (NNW) 5,581 11.9 -47.2°
Maximum altitude 02:41:46 22° 19° (NNE) 4,695 11.7 -44.6°
Drops below altitude 10° 02:53:22 10° 64° (ENE) 5,325 12.4 -42.0°
Sets 02:58:38 0° 78° (ENE) 6,036 12.9 -40.9°
